John Hopkins Middle School FL US WEATHERSTEM current weather conditions

sailwx.info

Wind from 095 at 11 knots gusting 12

Air temperature 6.7° C
Dewpoint 3.0° C

Last reported at 2020-Feb-22 08:50 UTC.
Time now 2020-Feb-22 10:16 UTC

Location: N 27°46' W 082°39'.
View on Google Maps.

See reports from other nearby stations

  
Tides and Currents Weather Stations Pressure Air Temp Water Temp Dewpoint Dewpoint Depression Visibility Wind Speed Wind Dir Waves Ship Positions
date/time (UTC)wind fromknots sea level pressurealtimeterstation pressurevisibilityair tempwater tempwave heightnotes
2020-Feb-22 08:50 095 11 gusting 12 6.7
2020-Feb-22 08:40 105 6 gusting 11 6.8
2020-Feb-22 08:30 130 6 gusting 11 6.8
2020-Feb-22 08:20 127 2 gusting 12 6.9
2020-Feb-22 08:10 168 3 gusting 13 6.9
2020-Feb-22 07:50 088 4 gusting 13 7.0
2020-Feb-22 07:40 107 5 gusting 10 7.1
2020-Feb-22 07:30 112 5 gusting 12 7.1
2020-Feb-22 07:20 111 6 gusting 13 7.1
2020-Feb-22 07:10 113 6 gusting 13 7.2
2020-Feb-22 06:50 091 5 gusting 12 7.3
2020-Feb-22 06:40 090 6 gusting 12 7.4
2020-Feb-22 06:30 097 2 gusting 10 7.4
2020-Feb-22 06:20 094 13 gusting 15 7.5
2020-Feb-22 06:10 105 9 gusting 14 7.6
2020-Feb-22 05:50 109 6 gusting 12 7.7
2020-Feb-22 05:40 111 7 gusting 11 7.7
2020-Feb-22 05:30 094 8 gusting 16 7.8
2020-Feb-22 05:20 099 8 gusting 14 7.9
2020-Feb-22 05:10 103 11 gusting 16 8.0
2020-Feb-22 04:50 093 3 gusting 14 8.1
2020-Feb-22 04:40 102 6 gusting 16 8.2
2020-Feb-22 04:30 131 14 gusting 15 8.2
2020-Feb-22 04:20 103 7 gusting 14 8.3
2020-Feb-22 04:10 107 11 gusting 16 8.3
2020-Feb-22 03:50 073 6 gusting 20 8.4
2020-Feb-22 03:40 104 11 gusting 14 8.4
2020-Feb-22 03:30 098 6 gusting 14 8.5
2020-Feb-22 03:20 091 6 gusting 14 8.6
2020-Feb-22 03:10 090 2 gusting 9 8.6
2020-Feb-22 02:50 088 7 gusting 12 8.8
2020-Feb-22 02:40 168 8 gusting 12 8.9
2020-Feb-22 02:30 101 6 gusting 12 8.9
2020-Feb-22 02:20 099 6 gusting 13 9.2
2020-Feb-22 02:10 107 6 gusting 14 9.2
2020-Feb-22 01:50 098 6 gusting 14 9.5
2020-Feb-22 01:40 089 12 gusting 16 9.6
2020-Feb-22 01:30 130 2 gusting 13 9.6
2020-Feb-22 01:20 105 7 gusting 18 9.6
2020-Feb-22 01:10 134 7 gusting 14 9.7
2020-Feb-22 00:50 113 5 gusting 13 9.6
2020-Feb-22 00:40 110 6 gusting 17 9.6
2020-Feb-22 00:30 195 2 gusting 13 9.7
2020-Feb-22 00:20 119 6 gusting 16 9.7
2020-Feb-22 00:10 121 4 gusting 18 9.8
2020-Feb-21 23:50 163 13 gusting 17 9.9
2020-Feb-21 23:40 069 4 gusting 16 10.1
2020-Feb-21 23:30 107 6 gusting 17 10.2
2020-Feb-21 23:20 154 7 gusting 13 10.4
2020-Feb-21 23:10 103 6 gusting 13 10.7
2020-Feb-21 22:50 123 9 gusting 16 10.8
2020-Feb-21 22:40 145 7 gusting 17 10.8
2020-Feb-21 22:30 111 6 gusting 15 10.9
2020-Feb-21 22:20 078 2 gusting 19 11.0
2020-Feb-21 22:10 111 6 gusting 16 11.2
2020-Feb-21 21:50 112 9 gusting 16 11.6
2020-Feb-21 21:40 105 11 gusting 15 11.8
2020-Feb-21 21:30 132 6 gusting 15 11.9
2020-Feb-21 21:20 101 7 gusting 13 12.2
2020-Feb-21 21:10 090 11 gusting 13 12.6
2020-Feb-21 20:50 107 7 gusting 13 13.0
2020-Feb-21 20:40 090 5 gusting 16 13.1
2020-Feb-21 20:30 109 7 gusting 15 13.2
2020-Feb-21 20:20 076 6 gusting 14 13.4
2020-Feb-21 20:10 123 11 gusting 17 13.6
2020-Feb-21 19:50 138 6 gusting 16 13.9
2020-Feb-21 19:40 109 9 gusting 17 13.7
2020-Feb-21 19:30 071 7 gusting 19 13.8
2020-Feb-21 19:20 107 7 gusting 17 13.8
2020-Feb-21 19:10 170 4 gusting 13 13.9
2020-Feb-21 18:50 134 4 gusting 16 14.2
2020-Feb-21 18:40 121 7 gusting 13 14.3
2020-Feb-21 18:30 101 12 gusting 16 13.9
2020-Feb-21 18:20 090 7 gusting 13 14.1
2020-Feb-21 18:10 110 12 gusting 16 14.2
2020-Feb-21 17:50 109 8 gusting 13 13.8
2020-Feb-21 17:40 099 6 gusting 18 13.8
2020-Feb-21 17:30 111 13 gusting 19 13.9
2020-Feb-21 17:20 093 10 gusting 17 13.6
2020-Feb-21 17:10 096 1 gusting 19 13.3
2020-Feb-21 16:50 098 2 gusting 14 13.2
2020-Feb-21 16:40 090 7 gusting 14 12.7
2020-Feb-21 16:30 090 3 gusting 17 12.6
2020-Feb-21 16:20 101 6 gusting 19 12.2
2020-Feb-21 16:10 119 9 gusting 13 12.1
2020-Feb-21 15:50 105 7 gusting 16 12.4
2020-Feb-21 15:40 098 7 gusting 14 11.9
2020-Feb-21 15:30 105 7 gusting 13 11.8
2020-Feb-21 15:20 136 6 gusting 15 11.3
2020-Feb-21 15:10 099 6 gusting 15 11.2
2020-Feb-21 14:50 098 9 gusting 17 11.6
2020-Feb-21 14:40 146 5 gusting 14 11.4
2020-Feb-21 14:30 137 6 gusting 15 11.2
2020-Feb-21 14:20 086 8 gusting 14 11.1
2020-Feb-21 13:50 123 11 gusting 13 11.4
2020-Feb-21 13:40 104 8 gusting 14 11.5
2020-Feb-21 13:30 103 2 gusting 14 11.4
2020-Feb-21 13:20 217 8 gusting 15 11.6
2020-Feb-21 13:10 108 6 gusting 14 11.9
2020-Feb-21 12:50 180 4 gusting 16 12.3
2020-Feb-21 12:40 123 9 gusting 12 12.4
2020-Feb-21 12:30 111 8 gusting 13 12.7
2020-Feb-21 12:20 098 5 gusting 13 12.6
2020-Feb-21 12:10 105 6 gusting 17 12.6
2020-Feb-21 12:00 115 10 gusting 14 12.7
2020-Feb-21 11:50 096 5 gusting 14 12.8
2020-Feb-21 11:40 117 6 gusting 12 13.1
2020-Feb-21 11:30 094 8 gusting 14 13.3
2020-Feb-21 11:20 098 6 gusting 12 13.5
2020-Feb-21 11:10 157 6 gusting 13 13.7
2020-Feb-21 10:50 155 6 gusting 12 14.2
2020-Feb-21 10:40 105 3 gusting 13 14.3
2020-Feb-21 10:30 246 10 gusting 19 14.9
2020-Feb-21 10:20 153 9 gusting 18 15.7
2020-Feb-21 10:10 107 11 gusting 15 16.9
2020-Feb-21 10:00 105 8 gusting 8 19.4
2020-Feb-21 09:50 080 3 gusting 8 19.4
2020-Feb-21 09:40 090 5 gusting 10 19.4
2020-Feb-21 09:30 104 8 gusting 9 19.7
2020-Feb-21 09:20 074 9 gusting 11 19.8
2020-Feb-21 09:10 084 3 gusting 10 19.9
2020-Feb-21 08:50 084 3 gusting 10 20.1
2020-Feb-21 08:40 088 11 gusting 13 20.2
2020-Feb-21 08:30 076 10 gusting 12 20.3
2020-Feb-21 08:20 086 7 gusting 11 20.8
2020-Feb-21 08:10 073 4 gusting 10 21.5
2020-Feb-21 07:50 346 6 gusting 6 22.2
2020-Feb-21 07:40 020 3 gusting 8 22.2
2020-Feb-21 07:30 303 0 gusting 7 22.3
2020-Feb-21 07:20 208 3 gusting 7 22.3
2020-Feb-21 07:10 360 2 gusting 6 22.2
2020-Feb-21 07:00 355 0 gusting 4 22.2
2020-Feb-21 06:50 011 2 gusting 5 22.2
2020-Feb-21 06:40 010 1 gusting 5 22.2
2020-Feb-21 06:30 011 1 gusting 6 22.2
2020-Feb-21 06:20 016 2 gusting 6 22.2
2020-Feb-21 06:10 355 1 gusting 5 22.2
2020-Feb-21 06:00 342 0 gusting 3 22.2
2020-Feb-21 05:50 336 1 gusting 4 22.2
2020-Feb-21 05:40 22.2
2020-Feb-21 05:30 22.2
2020-Feb-21 05:20 22.2
2020-Feb-21 05:10 22.2
2020-Feb-21 05:00 22.2
2020-Feb-21 04:50 22.2
2020-Feb-21 04:40 009 2 gusting 3 22.2
2020-Feb-21 04:30 010 2 gusting 3 22.2
2020-Feb-21 04:20 22.2
2020-Feb-21 04:10 010 1 gusting 4 22.2
2020-Feb-21 04:00 010 0 gusting 4 22.2
2020-Feb-21 03:50 010 1 gusting 4 22.3
2020-Feb-21 03:40 052 1 gusting 4 22.2
2020-Feb-21 03:30 22.3
2020-Feb-21 03:20 029 1 gusting 3 22.3
2020-Feb-21 03:10 026 0 gusting 4 22.3
2020-Feb-21 03:00 039 0 gusting 4 22.2
2020-Feb-21 02:50 22.2
2020-Feb-21 02:40 011 1 gusting 5 22.2
2020-Feb-21 02:30 032 1 gusting 5 22.2
2020-Feb-21 02:20 22.2
2020-Feb-21 02:10 355 2 gusting 5 22.2
2020-Feb-21 01:50 017 1 gusting 4 22.3
2020-Feb-21 01:40 22.2
2020-Feb-21 01:30 013 6 gusting 6 22.3
2020-Feb-21 01:20 005 0 gusting 6 22.3
2020-Feb-21 01:10 011 2 gusting 6 22.4
2020-Feb-21 01:00 034 2 gusting 6 22.4
2020-Feb-21 00:50 015 3 gusting 6 22.4
2020-Feb-21 00:40 350 4 gusting 7 22.5
2020-Feb-21 00:30 026 3 gusting 5 22.5
2020-Feb-21 00:20 020 1 gusting 6 22.6
2020-Feb-21 00:10 009 3 gusting 6 22.6
2020-Feb-20 23:50 057 2 gusting 5 22.8
2020-Feb-20 23:40 014 0 gusting 5 23.0
2020-Feb-20 23:30 038 1 gusting 5 23.2
2020-Feb-20 23:20 005 3 gusting 5 23.4
2020-Feb-20 23:10 028 3 gusting 5 23.6
2020-Feb-20 23:00 019 1 gusting 9 23.9
2020-Feb-20 22:50 017 6 gusting 9 24.2
2020-Feb-20 22:40 011 2 gusting 7 24.4
2020-Feb-20 22:30 029 5 gusting 9 24.6
2020-Feb-20 22:20 012 3 gusting 9 24.8
2020-Feb-20 22:10 005 6 gusting 8 24.8
2020-Feb-20 21:50 348 2 gusting 10 25.0
2020-Feb-20 21:40 360 1 gusting 12 25.1
2020-Feb-20 21:30 347 2 gusting 8 25.2
2020-Feb-20 21:20 011 2 gusting 9 25.2
2020-Feb-20 21:10 005 4 gusting 8 25.4
2020-Feb-20 21:00 302 1 gusting 8 25.6
2020-Feb-20 20:50 024 2 gusting 10 25.5
2020-Feb-20 20:40 240 2 gusting 9 25.6
2020-Feb-20 20:30 320 2 gusting 7 25.8
2020-Feb-20 20:20 011 3 gusting 9 25.7
2020-Feb-20 20:10 011 4 gusting 8 26.1
2020-Feb-20 20:00 014 4 gusting 9 26.2
2020-Feb-20 19:50 304 1 gusting 9 26.3
2020-Feb-20 19:40 300 1 gusting 11 26.4
2020-Feb-20 19:30 011 8 gusting 12 26.7
2020-Feb-20 19:20 005 6 gusting 10 26.3
2020-Feb-20 19:10 349 0 gusting 14 26.8
2020-Feb-20 19:00 277 0 gusting 11 27.6
2020-Feb-20 18:50 009 0 gusting 13 27.2
2020-Feb-20 18:40 314 2 gusting 13 26.9
2020-Feb-20 18:30 296 3 gusting 12 27.3
2020-Feb-20 18:20 275 7 gusting 13 27.4
2020-Feb-20 18:10 259 7 gusting 13 27.3
2020-Feb-20 17:50 346 4 gusting 13 27.3
2020-Feb-20 17:40 320 3 gusting 11 27.1
2020-Feb-20 17:30 290 1 gusting 13 27.1
2020-Feb-20 17:20 290 7 gusting 12 26.9
2020-Feb-20 17:10 252 6 gusting 12 26.9
2020-Feb-20 17:00 286 6 gusting 13 26.6
2020-Feb-20 16:50 291 1 gusting 10 26.6
2020-Feb-20 16:40 300 6 gusting 13 26.5
2020-Feb-20 16:30 277 7 gusting 12 26.3
2020-Feb-20 16:20 305 6 gusting 10 25.8
2020-Feb-20 16:10 255 4 gusting 7 26.4
2020-Feb-20 16:00 292 1 gusting 7 25.9
2020-Feb-20 15:50 273 0 gusting 8 25.3
2020-Feb-20 15:40 277 3 gusting 10 24.4
2020-Feb-20 15:30 271 2 gusting 11 23.8
2020-Feb-20 15:20 294 6 gusting 9 23.6
2020-Feb-20 15:10 244 6 gusting 8 23.3
2020-Feb-20 15:00 290 2 gusting 7 23.2
2020-Feb-20 14:50 256 3 gusting 8 23.2
2020-Feb-20 14:40 242 6 gusting 8 23.0
2020-Feb-20 14:30 252 4 gusting 8 22.8
2020-Feb-20 14:20 250 4 gusting 9 22.8
2020-Feb-20 14:10 249 2 gusting 7 22.8
2020-Feb-20 14:00 235 4 gusting 9 22.8
2020-Feb-20 13:50 236 3 gusting 7 22.8
2020-Feb-20 13:40 230 3 gusting 9 22.8
2020-Feb-20 13:30 227 2 gusting 7 22.7
2020-Feb-20 13:20 201 1 gusting 8 22.6
2020-Feb-20 13:10 200 4 gusting 6 22.3
2020-Feb-20 13:00 196 1 gusting 6 22.3
2020-Feb-20 12:50 192 1 gusting 4 22.3
2020-Feb-20 12:40 194 1 gusting 5 22.2
2020-Feb-20 12:30 235 3 gusting 5 22.1
2020-Feb-20 12:20 215 2 gusting 5 22.1
2020-Feb-20 12:10 204 1 gusting 6 22.1
2020-Feb-20 12:00 22.2
2020-Feb-20 11:50 225 2 gusting 5 22.3
2020-Feb-20 11:40 205 0 gusting 5 22.3
2020-Feb-20 11:30 228 1 gusting 6 22.3
2020-Feb-20 11:20 232 3 gusting 5 22.2
2020-Feb-20 11:10 190 3 gusting 7 22.2
2020-Feb-20 11:00 252 2 gusting 5 22.2
2020-Feb-20 10:50 221 2 gusting 8 22.2
2020-Feb-20 10:40 224 1 gusting 6 22.3
2020-Feb-20 10:30 195 4 gusting 6 22.3
2020-Feb-20 10:20 169 1 gusting 6 22.3
2020-Feb-20 10:10 182 1 gusting 6 22.3
2020-Feb-20 10:00 188 0 gusting 6 22.3